Tracking 29892 objects as of 21-Nov-2024
HD Live streaming from Space Station
objects crossing your sky now

DELTA 1 DEB

Track DELTA 1 DEB now!
10-day predictions


NORAD ID: 13575
Int'l Code: 1978-026FN
Perigee: 869.8 km
Apogee: 896.6 km
Inclination: 99.2 °
Period: 102.5 minutes
Semi major axis: 7254 km
RCS: 0.035 m2 (small)
Launch date: March 5, 1978
Source: United States (US)
Launch site: AIR FORCE WESTERN TEST RANGE (AFWTR)

Note: This is SATELLITE DEBRIS
Your satellite tracking list
Your tracking list is empty




NASA's NSSDC Master Catalog

Two Line Element Set (TLE):
1 13575U 78026FN  24325.23938365  .00000474  00000-0  32210-3 0  9995
2 13575  99.2311 329.4102 0018467 208.8661 151.1485 14.05147553224419
Source of the keplerian elements: AFSPC